Year,Month,Day,Hour,Minute,Value (Times are PST for temperature in C)
2006,12,13,15,05,8.20
2006,12,13,15,06,8.20
2006,12,13,15,07,8.10
2006,12,13,15,08,8.10
2006,12,13,15,09,8.10
2006,12,13,15,10,8.10
2006,12,13,15,11,8.00
2006,12,13,15,12,8.00
2006,12,13,15,13,7.90
2006,12,13,15,14,7.90
2006,12,13,15,15,7.90
2006,12,13,15,16,7.80
2006,12,13,15,17,7.80
2006,12,13,15,18,7.80
2006,12,13,15,19,7.70
2006,12,13,15,20,7.60
2006,12,13,15,21,7.50
2006,12,13,15,22,7.40
2006,12,13,15,23,7.30
2006,12,13,15,24,7.30
2006,12,13,15,25,7.30
2006,12,13,15,26,7.20
2006,12,13,15,27,7.20
2006,12,13,15,28,7.10
2006,12,13,15,29,7.10
2006,12,13,15,30,7.00
2006,12,13,15,31,7.00
2006,12,13,15,32,7.00
2006,12,13,15,33,6.90
2006,12,13,15,34,6.90
2006,12,13,15,35,6.90
2006,12,13,15,36,6.90
2006,12,13,15,37,6.90
2006,12,13,15,38,6.90
2006,12,13,15,39,6.90
2006,12,13,15,40,6.90
2006,12,13,15,41,6.90
2006,12,13,15,42,7.00
2006,12,13,15,43,7.00
2006,12,13,15,44,7.10
2006,12,13,15,45,7.10
2006,12,13,15,46,7.10
2006,12,13,15,47,7.10
2006,12,13,15,48,7.20
2006,12,13,15,49,7.20
2006,12,13,15,50,7.20
2006,12,13,15,51,7.30
2006,12,13,15,52,7.30
2006,12,13,15,53,7.30
2006,12,13,15,54,7.30
2006,12,13,15,55,7.30
2006,12,13,15,56,7.30
2006,12,13,15,57,7.30
2006,12,13,15,58,7.30
2006,12,13,15,59,7.40
2006,12,13,16,00,7.40
2006,12,13,16,01,7.40
2006,12,13,16,02,7.40
2006,12,13,16,03,7.40
2006,12,13,16,04,7.40
2006,12,13,16,05,7.40
2006,12,13,16,06,7.40
2006,12,13,16,07,7.40
2006,12,13,16,08,7.40
2006,12,13,16,09,7.40
2006,12,13,16,10,7.40
2006,12,13,16,11,7.40
2006,12,13,16,12,7.40
2006,12,13,16,13,7.40
2006,12,13,16,14,7.40
2006,12,13,16,15,7.40
2006,12,13,16,16,7.40
2006,12,13,16,17,7.40
2006,12,13,16,18,7.40
2006,12,13,16,19,7.40
2006,12,13,16,20,7.40
2006,12,13,16,21,7.40
2006,12,13,16,22,7.40
2006,12,13,16,23,7.40
2006,12,13,16,24,7.40
2006,12,13,16,25,7.40
2006,12,13,16,26,7.40
2006,12,13,16,27,7.40
2006,12,13,16,28,7.40
2006,12,13,16,29,7.40
2006,12,13,16,30,7.40
2006,12,13,16,31,7.30
2006,12,13,16,32,7.30
2006,12,13,16,33,7.30
2006,12,13,16,34,7.30
2006,12,13,16,35,7.30
2006,12,13,16,36,7.30
2006,12,13,16,37,7.40
2006,12,13,16,38,7.50
2006,12,13,16,39,7.50
2006,12,13,16,40,7.60
2006,12,13,16,41,7.60
2006,12,13,16,42,7.60
2006,12,13,16,43,7.60
2006,12,13,16,44,7.70
2006,12,13,16,45,7.70
2006,12,13,16,46,7.80
2006,12,13,16,47,7.80
2006,12,13,16,48,7.80
2006,12,13,16,49,7.80
2006,12,13,16,50,7.80
2006,12,13,16,51,7.80
2006,12,13,16,52,7.80
2006,12,13,16,53,7.80
2006,12,13,16,54,7.80
2006,12,13,16,55,7.80
2006,12,13,16,56,7.80
2006,12,13,16,57,7.80
2006,12,13,16,58,7.80
2006,12,13,16,59,7.80
2006,12,13,17,00,7.80
2006,12,13,17,01,7.90
2006,12,13,17,02,7.90
2006,12,13,17,03,7.90
2006,12,13,17,04,7.90
2006,12,13,17,05,7.90
2006,12,13,17,06,8.00
2006,12,13,17,07,8.00
2006,12,13,17,08,8.10
2006,12,13,17,09,8.10
2006,12,13,17,10,8.00
2006,12,13,17,11,8.00
2006,12,13,17,12,8.00
2006,12,13,17,13,7.90
2006,12,13,17,14,7.90
2006,12,13,17,15,7.80
2006,12,13,17,16,7.60
2006,12,13,17,17,7.50
2006,12,13,17,18,7.40
2006,12,13,17,19,7.30
2006,12,13,17,20,7.10
2006,12,13,17,21,7.00
2006,12,13,17,22,7.00
2006,12,13,17,23,6.80
2006,12,13,17,24,6.70
2006,12,13,17,25,6.60
2006,12,13,17,26,6.50
2006,12,13,17,27,6.30
2006,12,13,17,28,6.20
2006,12,13,17,29,6.10
2006,12,13,17,30,6.00
2006,12,13,17,31,5.90
2006,12,13,17,32,5.80
2006,12,13,17,33,5.70
2006,12,13,17,34,5.60
2006,12,13,17,35,5.60
2006,12,13,17,36,5.50
2006,12,13,17,37,5.40
2006,12,13,17,38,5.30
2006,12,13,17,39,5.30
2006,12,13,17,40,5.30
2006,12,13,17,41,5.30
2006,12,13,17,42,5.30
2006,12,13,17,43,5.30
2006,12,13,17,44,5.20
2006,12,13,17,45,5.20
2006,12,13,17,46,5.20
2006,12,13,17,47,5.20
2006,12,13,17,48,5.20
2006,12,13,17,49,5.20
2006,12,13,17,50,5.20
2006,12,13,17,51,5.20
2006,12,13,17,52,5.20
2006,12,13,17,53,5.20
2006,12,13,17,54,5.20
2006,12,13,17,55,5.10
2006,12,13,17,56,5.10
2006,12,13,17,57,5.10
2006,12,13,17,58,5.10
2006,12,13,17,59,5.10
2006,12,13,18,00,5.10
2006,12,13,18,01,5.10
2006,12,13,18,02,5.10
2006,12,13,18,03,5.10
2006,12,13,18,04,5.10
2006,12,13,18,05,5.00
2006,12,13,18,06,4.90
2006,12,13,18,07,4.90
2006,12,13,18,08,4.90
2006,12,13,18,09,4.90
2006,12,13,18,10,4.90
2006,12,13,18,11,4.90
2006,12,13,18,12,4.80
2006,12,13,18,13,4.80
2006,12,13,18,14,4.80
2006,12,13,18,15,4.80
2006,12,13,18,16,4.80
2006,12,13,18,17,4.70
2006,12,13,18,18,4.70
2006,12,13,18,19,4.70
2006,12,13,18,20,4.70
2006,12,13,18,21,4.70
2006,12,13,18,22,4.60
2006,12,13,18,23,4.60
2006,12,13,18,24,4.60
2006,12,13,18,25,4.60
2006,12,13,18,26,4.60
2006,12,13,18,27,4.70
2006,12,13,18,28,4.70
2006,12,13,18,29,4.80
2006,12,13,18,30,4.80
2006,12,13,18,31,4.80
2006,12,13,18,32,4.80
2006,12,13,18,33,4.80
2006,12,13,18,34,4.90
2006,12,13,18,35,4.90
2006,12,13,18,36,4.90
2006,12,13,18,37,4.90
2006,12,13,18,38,4.90
2006,12,13,18,39,5.00
2006,12,13,18,40,5.10
2006,12,13,18,41,5.10
2006,12,13,18,42,5.10
2006,12,13,18,43,5.10
2006,12,13,18,44,5.10
2006,12,13,18,45,5.20
2006,12,13,18,46,5.20
2006,12,13,18,47,5.30
2006,12,13,18,48,5.30
2006,12,13,18,49,5.30
2006,12,13,18,50,5.40
2006,12,13,18,51,5.40
2006,12,13,18,52,5.50
2006,12,13,18,53,5.50
2006,12,13,18,54,5.60
2006,12,13,18,55,5.60
2006,12,13,18,56,5.70
2006,12,13,18,57,5.80
2006,12,13,18,58,5.90
2006,12,13,18,59,6.00
2006,12,13,19,00,6.00
2006,12,13,19,01,6.10
2006,12,13,19,02,6.10
2006,12,13,19,03,6.10
2006,12,13,19,04,6.10
2006,12,13,19,05,6.10
2006,12,13,19,06,6.10
2006,12,13,19,07,6.10
2006,12,13,19,08,6.10
2006,12,13,19,09,6.10
2006,12,13,19,10,6.00
2006,12,13,19,11,6.00
2006,12,13,19,12,6.00
2006,12,13,19,13,6.00
2006,12,13,19,14,6.00
2006,12,13,19,15,6.00
2006,12,13,19,16,6.00
2006,12,13,19,17,6.00
2006,12,13,19,18,5.90
2006,12,13,19,19,5.90
2006,12,13,19,20,6.00
2006,12,13,19,21,6.00
2006,12,13,19,22,6.00
2006,12,13,19,23,6.00
2006,12,13,19,24,6.00
2006,12,13,19,25,6.00
2006,12,13,19,26,6.10
2006,12,13,19,27,6.10
2006,12,13,19,28,6.10
2006,12,13,19,29,6.20
2006,12,13,19,30,6.20
2006,12,13,19,31,6.20
2006,12,13,19,32,6.20
2006,12,13,19,33,6.20
2006,12,13,19,34,6.20
2006,12,13,19,35,6.20
2006,12,13,19,36,6.20
2006,12,13,19,37,6.20
2006,12,13,19,38,6.30
2006,12,13,19,39,6.30
2006,12,13,19,40,6.30
2006,12,13,19,41,6.30
2006,12,13,19,42,6.40
2006,12,13,19,43,6.40
2006,12,13,19,44,6.40
2006,12,13,19,45,6.40
2006,12,13,19,46,6.40
2006,12,13,19,47,6.40
2006,12,13,19,48,6.40
2006,12,13,19,49,6.40
2006,12,13,19,50,6.40
2006,12,13,19,51,6.30
2006,12,13,19,52,6.30
2006,12,13,19,53,6.30
2006,12,13,19,54,6.30
2006,12,13,19,55,6.30
2006,12,13,19,56,6.20
2006,12,13,19,57,6.20
2006,12,13,19,58,6.20
2006,12,13,19,59,6.20
2006,12,13,20,00,6.20
2006,12,13,20,01,6.20
2006,12,13,20,02,6.10
2006,12,13,20,03,6.10
2006,12,13,20,04,6.10
2006,12,13,20,05,6.10
2006,12,13,20,06,6.10
2006,12,13,20,07,6.10
2006,12,13,20,08,6.00
2006,12,13,20,09,6.00
2006,12,13,20,10,6.00
2006,12,13,20,11,6.00
2006,12,13,20,12,6.00
2006,12,13,20,13,6.00
2006,12,13,20,14,6.00
2006,12,13,20,15,6.00
2006,12,13,20,16,5.90
2006,12,13,20,17,5.90
2006,12,13,20,18,5.90
2006,12,13,20,19,5.90
2006,12,13,20,20,5.90
2006,12,13,20,21,5.90
2006,12,13,20,22,5.90
2006,12,13,20,23,5.90
2006,12,13,20,24,5.90
2006,12,13,20,25,5.90
2006,12,13,20,26,5.90
2006,12,13,20,27,5.90
2006,12,13,20,28,5.90
2006,12,13,20,29,6.00
2006,12,13,20,30,6.00
2006,12,13,20,31,6.00
2006,12,13,20,32,6.00
2006,12,13,20,33,6.00
2006,12,13,20,34,6.00
2006,12,13,20,35,6.00
2006,12,13,20,36,6.10
2006,12,13,20,37,6.10
2006,12,13,20,38,6.20
2006,12,13,20,39,6.20
2006,12,13,20,40,6.20
2006,12,13,20,41,6.20
2006,12,13,20,42,6.20
2006,12,13,20,43,6.20
2006,12,13,20,44,6.30
2006,12,13,20,45,6.30
2006,12,13,20,46,6.30
2006,12,13,20,47,6.30
2006,12,13,20,48,6.30
2006,12,13,20,49,6.30
2006,12,13,20,50,6.20
2006,12,13,20,51,6.20
2006,12,13,20,52,6.20
2006,12,13,20,53,6.20
2006,12,13,20,54,6.20
2006,12,13,20,55,6.20
2006,12,13,20,56,6.20
2006,12,13,20,57,6.10
2006,12,13,20,58,6.10
2006,12,13,20,59,6.10
2006,12,13,21,00,6.10
2006,12,13,21,01,6.00
2006,12,13,21,02,6.00
2006,12,13,21,03,6.00
2006,12,13,21,04,6.00
2006,12,13,21,05,5.90
2006,12,13,21,06,5.90
2006,12,13,21,07,5.90
2006,12,13,21,08,5.90
2006,12,13,21,09,5.90
2006,12,13,21,10,5.90
2006,12,13,21,11,6.00
2006,12,13,21,12,6.00
2006,12,13,21,13,6.00
2006,12,13,21,14,6.00
2006,12,13,21,15,6.00
2006,12,13,21,16,6.00
2006,12,13,21,17,6.10
2006,12,13,21,18,6.10
2006,12,13,21,19,6.10
2006,12,13,21,20,6.10
2006,12,13,21,21,6.10
2006,12,13,21,22,6.10
2006,12,13,21,23,6.10
2006,12,13,21,24,6.10
2006,12,13,21,25,6.10
2006,12,13,21,26,6.10
2006,12,13,21,27,6.10
2006,12,13,21,28,6.10
2006,12,13,21,29,6.10
2006,12,13,21,30,6.00
2006,12,13,21,31,6.00
2006,12,13,21,32,6.00
2006,12,13,21,33,6.00
2006,12,13,21,34,6.00
2006,12,13,21,35,6.00
2006,12,13,21,36,6.00
2006,12,13,21,37,6.00
2006,12,13,21,38,6.00
2006,12,13,21,39,6.00
2006,12,13,21,40,6.00
2006,12,13,21,41,6.00
2006,12,13,21,42,6.00
2006,12,13,21,43,6.00
2006,12,13,21,44,6.00
2006,12,13,21,45,6.00
2006,12,13,21,46,6.00
2006,12,13,21,47,6.00
2006,12,13,21,48,6.00
2006,12,13,21,49,6.00
2006,12,13,21,50,5.90
2006,12,13,21,51,5.90
2006,12,13,21,52,6.00
2006,12,13,21,53,6.00
2006,12,13,21,54,6.00
2006,12,13,21,55,5.90
2006,12,13,21,56,5.90
2006,12,13,21,57,5.90
2006,12,13,21,58,6.00
2006,12,13,21,59,6.00
2006,12,13,22,00,6.00
2006,12,13,22,01,6.00
2006,12,13,22,02,6.00
2006,12,13,22,03,6.10
2006,12,13,22,04,6.10
2006,12,13,22,05,6.10
2006,12,13,22,06,6.10
2006,12,13,22,07,6.20
2006,12,13,22,08,6.20
2006,12,13,22,09,6.20
2006,12,13,22,10,6.20
2006,12,13,22,11,6.20
2006,12,13,22,12,6.20
2006,12,13,22,13,6.20
2006,12,13,22,14,6.20
2006,12,13,22,15,6.20
2006,12,13,22,16,6.20
2006,12,13,22,17,6.20
2006,12,13,22,18,6.20
2006,12,13,22,19,6.20
2006,12,13,22,20,6.20
2006,12,13,22,21,6.20
2006,12,13,22,22,6.20
2006,12,13,22,23,6.20
2006,12,13,22,24,6.20
2006,12,13,22,25,6.20
2006,12,13,22,26,6.20
2006,12,13,22,27,6.20
2006,12,13,22,28,6.10
2006,12,13,22,29,6.10
2006,12,13,22,30,6.10
2006,12,13,22,31,6.10
2006,12,13,22,32,6.10
2006,12,13,22,33,6.00
2006,12,13,22,34,6.00
2006,12,13,22,35,6.00
2006,12,13,22,36,6.00
2006,12,13,22,37,5.90
2006,12,13,22,38,5.90
2006,12,13,22,39,5.90
2006,12,13,22,40,5.90
2006,12,13,22,41,5.80
2006,12,13,22,42,5.80
2006,12,13,22,43,5.70
2006,12,13,22,44,5.70
2006,12,13,22,45,5.70
2006,12,13,22,46,5.70
2006,12,13,22,47,5.70
2006,12,13,22,48,5.70
2006,12,13,22,49,5.60
2006,12,13,22,50,5.60
2006,12,13,22,51,5.60
2006,12,13,22,52,5.60
2006,12,13,22,53,5.50
2006,12,13,22,54,5.50
2006,12,13,22,55,5.50
2006,12,13,22,56,5.50
2006,12,13,22,57,5.40
2006,12,13,22,58,5.40
2006,12,13,22,59,5.40
2006,12,13,23,00,5.30
2006,12,13,23,01,5.30
2006,12,13,23,02,5.30
2006,12,13,23,03,5.30
2006,12,13,23,04,5.30
2006,12,13,23,05,5.20
2006,12,13,23,06,5.20
2006,12,13,23,07,5.10
2006,12,13,23,08,5.10
2006,12,13,23,09,5.10
2006,12,13,23,10,5.10
2006,12,13,23,11,5.00
2006,12,13,23,12,4.90
2006,12,13,23,13,4.90
2006,12,13,23,14,4.90
2006,12,13,23,15,4.80
2006,12,13,23,16,4.80
2006,12,13,23,17,4.70
2006,12,13,23,18,4.70
2006,12,13,23,19,4.60
2006,12,13,23,20,4.60
2006,12,13,23,21,4.60
2006,12,13,23,22,4.50
2006,12,13,23,23,4.50
2006,12,13,23,24,4.50
2006,12,13,23,25,4.40
2006,12,13,23,26,4.40
2006,12,13,23,27,4.40
2006,12,13,23,28,4.30
2006,12,13,23,29,4.30
2006,12,13,23,30,4.30
2006,12,13,23,31,4.20
2006,12,13,23,32,4.20
2006,12,13,23,33,4.20
2006,12,13,23,34,4.20
2006,12,13,23,35,4.20
2006,12,13,23,36,4.20
2006,12,13,23,37,4.20
2006,12,13,23,38,4.20
2006,12,13,23,39,4.10
2006,12,13,23,40,4.10
2006,12,13,23,41,4.10
2006,12,13,23,42,4.00
2006,12,13,23,43,4.00
2006,12,13,23,44,4.00
2006,12,13,23,45,4.00
2006,12,13,23,46,4.00
2006,12,13,23,47,4.00
2006,12,13,23,48,4.00
2006,12,13,23,49,4.00
2006,12,13,23,50,3.90
2006,12,13,23,51,3.90
2006,12,13,23,52,3.90
2006,12,13,23,53,3.90
2006,12,13,23,54,3.90
2006,12,13,23,55,3.90
2006,12,13,23,56,3.90
2006,12,13,23,57,3.90
2006,12,13,23,58,3.90
2006,12,13,23,59,3.90
